Deer Park, WA
on Tuesday, January 22, 2013

Tuesday
Previous Day Next Day
Daily Summary
 ActualAverageRecord
Temperature
Mean Temperature °F 28°F  
Max Temperature 21°F 34°F 41°F (2005)
Min Temperature 7°F 22°F -9°F (2008)
Degree Days
Heating Degree Days 51 37  
Month to date heating degree days 991 842  
Since 1 July heating degree days 3784 4069  
Cooling Degree Days 0 0  
Month to date cooling degree days 0 0  
Year to date cooling degree days 0 0  
Moisture
Dew Point 10°F   
Average Humidity 92    
Maximum Humidity 100    
Minimum Humidity 83    
Precipitation
Precipitation 0.00 in 0.07 in 0.42 in (2003)
Month to date precipitation 1.11 2.04  
Year to date precipitation 1.11 2.04  
Wind
Wind Speed 1 mph   
Max Wind Speed 6 mph   
Max Gust Speed 6 mph   
Visibility 5 miles   
Events Fog   

Key: T is trace of precipitation, MM is missing value
Source: NWS Daily Summary
Time(PST)TemperatureDew PointHumidity Pressure Visibility Wind DirectionWind SpeedGust SpeedPrecipitationEvents Conditions
12:53 AM 8.1°F 6.1°F 92% 30.41 in 0.2 miles Calm Calm - N/A Fog Light Freezing Fog
1:53 AM 8.1°F 6.1°F 92% 30.41 in 0.2 miles Calm Calm - N/A Fog Light Freezing Fog
2:53 AM 8.1°F 6.1°F 92% 30.40 in 0.2 miles Calm Calm - N/A Fog Light Freezing Fog
3:53 AM 7.0°F 5.0°F 92% 30.39 in 0.5 miles NW 3.5 mph - N/A Fog Light Freezing Fog
4:10 AM 6.8°F 5.0°F 92% 30.27 in 2.0 miles NW 4.6 mph - N/A   Overcast
4:18 AM 6.8°F 5.0°F 92% 30.26 in 5.0 miles NNW 3.5 mph - N/A   Overcast
4:31 AM 6.8°F 5.0°F 92% 30.26 in 2.5 miles Calm Calm - N/A   Overcast
4:53 AM 7.0°F 6.1°F 96% 30.39 in 1.2 miles Calm Calm - N/A   Overcast
5:08 AM 6.8°F 5.0°F 92% 30.26 in 0.5 miles NW 3.5 mph - N/A Fog Light Freezing Fog
5:27 AM 8.6°F 6.8°F 92% 30.25 in 1.8 miles Calm Calm - N/A   Overcast
5:32 AM 8.6°F 6.8°F 92% 30.25 in 3.0 miles Calm Calm - N/A   Overcast
5:53 AM 8.1°F 5.0°F 87% 30.38 in 2.0 miles NW 3.5 mph - N/A   Overcast
6:05 AM 8.6°F 5.0°F 85% 30.25 in 5.0 miles Calm Calm - N/A   Overcast
6:53 AM 7.0°F 5.0°F 92% 30.41 in 7.0 miles Calm Calm - N/A   Overcast
7:53 AM 8.1°F 5.0°F 87% 30.40 in 7.0 miles Calm Calm - N/A   Overcast
8:53 AM 9.0°F 7.0°F 92% 30.40 in 8.0 miles NW 3.5 mph - N/A   Overcast
9:53 AM 12.0°F 10.0°F 92% 30.40 in 6.0 miles Calm Calm - N/A   Overcast
10:33 AM 12.2°F 12.2°F 100% 30.26 in 2.5 miles WSW 3.5 mph - N/A   Mostly Cloudy
10:40 AM 12.2°F 10.4°F 92% 30.26 in 2.5 miles West 3.5 mph - N/A   Scattered Clouds
10:49 AM 12.2°F 10.4°F 92% 30.26 in 4.0 miles WSW 3.5 mph - N/A   Partly Cloudy
10:53 AM 12.9°F 10.9°F 92% 30.40 in 5.0 miles WSW 3.5 mph - N/A   Clear
11:53 AM 17.1°F 16.0°F 96% 30.37 in 10.0 miles Calm Calm - N/A   Clear
12:53 PM 19.0°F 16.0°F 88% 30.33 in 10.0 miles WSW 3.5 mph - N/A   Clear
1:53 PM 19.9°F 17.1°F 89% 30.32 in 10.0 miles Calm Calm - N/A   Clear
2:53 PM 19.9°F 17.1°F 89% 30.30 in 10.0 miles South 3.5 mph - N/A   Clear
3:53 PM 19.9°F 18.0°F 92% 30.30 in 7.0 miles SSW 3.5 mph - N/A   Clear
4:53 PM 18.0°F 16.0°F 92% 30.29 in 7.0 miles Calm Calm - N/A   Clear
5:53 PM 15.1°F 12.9°F 91% 30.28 in 5.0 miles Calm Calm - N/A   Clear
6:37 PM 14.0°F 12.2°F 93% 30.15 in 1.5 miles Calm Calm - N/A   Clear
6:49 PM 14.0°F 12.2°F 93% 30.14 in 3.0 miles Calm Calm - N/A   Clear
6:53 PM 14.0°F 10.9°F 88% 30.28 in 5.0 miles Calm Calm - N/A   Clear
7:53 PM 15.1°F 12.0°F 88% 30.27 in 8.0 miles Calm Calm - N/A   Clear
8:53 PM 16.0°F 12.9°F 88% 30.27 in 10.0 miles Calm Calm - N/A   Clear
9:53 PM 12.0°F 10.0°F 92% 30.27 in 9.0 miles Calm Calm - N/A   Clear
10:53 PM 15.1°F 12.9°F 91% 30.27 in 8.0 miles Calm Calm - N/A   Clear
11:53 PM 14.0°F 10.9°F 88% 30.25 in 8.0 miles Calm Calm - N/A   Clear
Moon Phase
Jan. 22 Jan. 26 Feb. 03 Feb. 10 Feb. 17
Sunrise:07:28 AM (PST) Moon Rise:12:57 PM (PST)
Sunset:04:34 PM (PST) Moon Set:03:57 AM (PST)

Copyright © 2014 The Weather Underground, Inc.